Location: Te Maire Creek
(41.1333°S, 175.9167°E)
Time: 02:15:05
(UTC+00:00)

Lacrosse 5 - Pass Details

Date: 19 May 2024
Orbit: 714 x 724 km, 57.0° (Epoch: 09 March)

Event Time Altitude Azimuth Distance (km) Brightness Sun altitude
Exits shadow 17:00:43 14° 178° (S) 1,952 4.1 -26.4°
Drops below altitude 10° 17:02:36 10° 157° (SSE) 2,229 4.6 -26.0°
Sets 17:06:03 0° 134° (SE) 3,150 5.8 -25.4°
